QPF
0.02 0.02 0.01 0.01 0.00 0.00 0.00 0.00 0.00 0.00 0.01 0.01 0.01 0.01 0.02 0.02 0.02 0.01 0.01 0.01 0.02 0.03 0.05 0.05 0.07 0.10 0.10 0.09 0.08 0.06 0.06 0.05 0.04 0.03 0.03 0.02 0.02 0.02 0.02 0.02 0.02 0.02 0.02
0.02 0.01 0.01 0.01 0.00 0.00 0.00 0.00 0.00 0.00 0.01 0.01 0.01 0.02 0.02 0.02 0.01 0.01 0.01 0.01 0.01 0.02 0.04 0.06 0.08 0.12 0.14 0.12 0.10 0.08 0.06 0.05 0.05 0.04 0.03 0.02 0.02 0.02 0.02 0.02 0.02 0.03 0.03
0.04 0.02 0.01 0.01 0.01 0.00 0.00 0.00 0.00 0.01 0.01 0.01 0.01 0.01 0.02 0.02 0.02 0.01 0.01 0.01 0.01 0.02 0.03 0.04 0.06 0.08 0.12 0.16 0.15 0.13 0.09 0.07 0.06 0.06 0.05 0.05 0.03 0.03 0.02 0.02 0.02 0.02 0.02
0.06 0.05 0.04 0.02 0.01 0.01 0.00 0.00 0.00 0.01 0.01 0.02 0.02 0.01 0.01 0.02 0.02 0.02 0.02 0.01 0.02 0.02 0.03 0.04 0.04 0.06 0.07 0.11 0.14 0.13 0.11 0.08 0.07 0.07 0.07 0.06 0.06 0.05 0.04 0.03 0.02 0.02 0.03
0.05 0.06 0.06 0.05 0.03 0.02 0.01 0.01 0.00 0.01 0.01 0.02 0.02 0.02 0.02 0.01 0.02 0.02 0.02 0.01 0.02 0.02 0.02 0.03 0.04 0.05 0.05 0.08 0.10 0.10 0.10 0.10 0.08 0.09 0.09 0.09 0.08 0.09 0.08 0.07 0.05 0.03 0.03
0.06 0.05 0.06 0.07 0.06 0.04 0.03 0.03 0.02 0.02 0.01 0.02 0.02 0.02 0.03 0.02 0.01 0.01 0.02 0.02 0.02 0.02 0.02 0.03 0.04 0.04 0.05 0.05 0.07 0.08 0.09 0.09 0.09 0.10 0.12 0.13 0.11 0.10 0.09 0.08 0.07 0.05 0.05
0.09 0.09 0.09 0.09 0.09 0.09 0.06 0.04 0.04 0.03 0.02 0.02 0.02 0.02 0.02 0.02 0.03 0.02 0.02 0.02 0.02 0.03 0.02 0.03 0.03 0.04 0.04 0.04 0.05 0.07 0.09 0.09 0.11 0.12 0.13 0.16 0.16 0.14 0.11 0.08 0.07 0.05 0.05
0.06 0.07 0.08 0.07 0.07 0.08 0.08 0.06 0.05 0.04 0.04 0.03 0.02 0.02 0.02 0.02 0.02 0.03 0.03 0.02 0.03 0.04 0.05 0.04 0.04 0.04 0.05 0.04 0.04 0.05 0.06 0.08 0.10 0.11 0.12 0.13 0.16 0.18 0.19 0.16 0.13 0.10 0.09
0.04 0.04 0.03 0.03 0.04 0.04 0.05 0.06 0.06 0.04 0.03 0.02 0.02 0.02 0.02 0.03 0.02 0.02 0.03 0.03 0.02 0.04 0.07 0.07 0.07 0.05 0.04 0.04 0.04 0.04 0.05 0.06 0.07 0.07 0.08 0.10 0.10 0.11 0.15 0.16 0.15 0.16 0.17
0.02 0.03 0.02 0.02 0.02 0.03 0.03 0.04 0.04 0.04 0.03 0.03 0.01 0.01 0.01 0.02 0.02 0.02 0.02 0.03 0.03 0.02 0.04 0.07 0.08 0.08 0.06 0.05 0.04 0.04 0.04 0.05 0.06 0.07 0.07 0.08 0.08 0.08 0.10 0.11 0.12 0.12 0.13
0.02 0.03 0.03 0.02 0.02 0.02 0.03 0.03 0.03 0.03 0.03 0.02 0.02 0.01 0.01 0.01 0.02 0.02 0.02 0.02 0.03 0.03 0.04 0.05 0.06 0.08 0.09 0.08 0.05 0.04 0.04 0.04 0.06 0.07 0.07 0.08 0.07 0.07 0.08 0.10 0.10 0.09 0.08
0.01 0.02 0.02 0.02 0.02 0.02 0.02 0.03 0.02 0.02 0.02 0.01 0.01 0.01 0.01 0.01 0.01 0.02 0.01 0.01 0.02 0.03 0.04 0.04 0.04 0.06 0.07 0.08 0.06 0.05 0.04 0.04 0.05 0.06 0.06 0.07 0.06 0.05 0.07 0.09 0.10 0.11 0.11
0.01 0.01 0.01 0.01 0.01 0.01 0.02 0.03 0.02 0.02 0.01 0.01 0.01 0.01 0.01 0.01 0.01 0.01 0.02 0.01 0.01 0.02 0.03 0.03 0.03 0.03 0.04 0.05 0.06 0.06 0.05 0.04 0.04 0.06 0.06 0.06 0.07 0.05 0.05 0.08 0.10 0.11 0.13
0.02 0.01 0.02 0.01 0.01 0.01 0.02 0.02 0.03 0.02 0.01 0.01 0.01 0.01 0.01 0.01 0.01 0.01 0.01 0.02 0.02 0.02 0.02 0.02 0.02 0.02 0.03 0.03 0.04 0.05 0.04 0.05 0.05 0.05 0.07 0.08 0.07 0.06 0.04 0.05 0.07 0.10 0.11
0.02 0.01 0.02 0.02 0.01 0.01 0.01 0.02 0.02 0.02 0.01 0.01 0.00 0.01 0.01 0.01 0.01 0.01 0.01 0.02 0.02 0.02 0.02 0.02 0.02 0.02 0.02 0.02 0.03 0.03 0.03 0.04 0.05 0.05 0.06 0.08 0.07 0.05 0.04 0.04 0.06 0.08 0.10
0.02 0.01 0.01 0.01 0.01 0.01 0.01 0.01 0.02 0.02 0.02 0.01 0.01 0.01 0.01 0.01 0.01 0.01 0.01 0.02 0.02 0.02 0.02 0.02 0.02 0.02 0.02 0.02 0.03 0.03 0.03 0.05 0.06 0.05 0.06 0.07 0.06 0.04 0.03 0.04 0.05 0.07 0.09
0.02 0.01 0.01 0.00 0.00 0.01 0.01 0.01 0.02 0.03 0.02 0.02 0.02 0.02 0.01 0.01 0.01 0.01 0.02 0.02 0.01 0.02 0.02 0.01 0.02 0.03 0.02 0.03 0.03 0.03 0.03 0.05 0.06 0.06 0.05 0.07 0.06 0.04 0.03 0.04 0.06 0.07 0.08
0.03 0.02 0.01 0.00 0.00 0.00 0.01 0.01 0.02 0.03 0.03 0.03 0.03 0.03 0.02 0.01 0.01 0.02 0.02 0.02 0.01 0.01 0.02 0.02 0.02 0.03 0.03 0.03 0.03 0.04 0.05 0.06 0.04 0.05 0.05 0.08 0.10 0.06 0.05 0.05 0.07 0.08 0.08
0.02 0.01 0.01 0.01 0.01 0.01 0.01 0.02 0.03 0.03 0.03 0.04 0.04 0.03 0.02 0.02 0.02 0.02 0.02 0.02 0.02 0.01 0.02 0.02 0.03 0.04 0.04 0.04 0.04 0.04 0.05 0.07 0.05 0.05 0.05 0.07 0.10 0.10 0.06 0.05 0.06 0.08 0.08
0.02 0.02 0.02 0.02 0.01 0.02 0.02 0.02 0.03 0.03 0.03 0.03 0.03 0.03 0.03 0.02 0.03 0.03 0.02 0.02 0.02 0.02 0.02 0.03 0.04 0.05 0.06 0.05 0.04 0.04 0.06 0.07 0.05 0.04 0.06 0.06 0.08 0.12 0.10 0.07 0.08 0.09 0.09
0.02 0.02 0.02 0.03 0.03 0.03 0.02 0.03 0.03 0.02 0.03 0.03 0.03 0.03 0.03 0.03 0.03 0.03 0.03 0.02 0.02 0.02 0.03 0.03 0.03 0.05 0.07 0.07 0.04 0.03 0.05 0.06 0.05 0.05 0.06 0.06 0.06 0.08 0.11 0.12 0.12 0.11 0.10
0.03 0.03 0.03 0.03 0.03 0.03 0.03 0.03 0.03 0.02 0.02 0.03 0.03 0.03 0.03 0.03 0.03 0.03 0.04 0.03 0.03 0.03 0.03 0.03 0.03 0.05 0.08 0.07 0.04 0.03 0.04 0.05 0.05 0.05 0.06 0.07 0.07 0.08 0.11 0.14 0.16 0.14 0.11
0.02 0.02 0.03 0.03 0.04 0.03 0.02 0.02 0.02 0.02 0.02 0.02 0.02 0.03 0.03 0.03 0.04 0.04 0.03 0.03 0.04 0.04 0.04 0.04 0.04 0.05 0.08 0.07 0.04 0.03 0.04 0.04 0.05 0.06 0.05 0.07 0.07 0.08 0.10 0.14 0.16 0.14 0.12
0.01 0.02 0.02 0.03 0.03 0.03 0.02 0.01 0.02 0.02 0.02 0.02 0.02 0.02 0.03 0.03 0.03 0.03 0.03 0.03 0.03 0.03 0.04 0.04 0.04 0.05 0.07 0.05 0.04 0.03 0.03 0.04 0.04 0.05 0.04 0.06 0.07 0.08 0.09 0.13 0.15 0.13 0.14
0.01 0.01 0.01 0.01 0.02 0.02 0.02 0.02 0.02 0.01 0.01 0.01 0.02 0.02 0.02 0.02 0.02 0.02 0.02 0.02 0.03 0.03 0.03 0.05 0.05 0.06 0.06 0.05 0.05 0.04 0.03 0.03 0.03 0.04 0.04 0.05 0.06 0.06 0.08 0.10 0.12 0.12 0.12
0.01 0.01 0.01 0.01 0.01 0.01 0.01 0.01 0.01 0.01 0.01 0.01 0.02 0.02 0.02 0.02 0.03 0.02 0.02 0.02 0.03 0.03 0.03 0.03 0.04 0.04 0.05 0.04 0.04 0.04 0.03 0.02 0.02 0.03 0.03 0.04 0.05 0.05 0.07 0.08 0.08 0.09 0.09
MSLP
1028.39 1027.97 1027.48 1026.95 1026.37 1025.77 1025.17 1024.57 1023.98 1023.38 1022.78 1022.14 1021.47 1020.78 1020.07 1019.38 1018.74 1018.15 1017.63 1017.15 1016.69 1016.20 1015.65 1015.02 1014.31 1013.54 1012.76 1012.03 1011.41 1010.94 1010.64 1010.52 1010.56 1010.72 1010.96 1011.24 1011.53 1011.80 1012.05 1012.28 1012.47 1012.64 1012.77
1028.75 1028.28 1027.75 1027.18 1026.57 1025.96 1025.35 1024.76 1024.18 1023.59 1022.97 1022.31 1021.59 1020.83 1020.03 1019.25 1018.52 1017.85 1017.26 1016.74 1016.26 1015.77 1015.24 1014.63 1013.94 1013.18 1012.39 1011.63 1010.95 1010.40 1010.02 1009.81 1009.79 1009.91 1010.15 1010.45 1010.80 1011.15 1011.50 1011.81 1012.09 1012.33 1012.52
1029.09 1028.58 1028.00 1027.37 1026.74 1026.11 1025.50 1024.93 1024.36 1023.78 1023.16 1022.47 1021.70 1020.86 1019.98 1019.09 1018.25 1017.49 1016.82 1016.25 1015.73 1015.24 1014.73 1014.15 1013.50 1012.76 1011.98 1011.19 1010.45 1009.83 1009.36 1009.06 1008.96 1009.03 1009.24 1009.56 1009.95 1010.39 1010.83 1011.25 1011.63 1011.96 1012.23
1029.39 1028.83 1028.21 1027.55 1026.88 1026.24 1025.64 1025.07 1024.51 1023.94 1023.31 1022.58 1021.76 1020.85 1019.88 1018.90 1017.95 1017.08 1016.32 1015.68 1015.12 1014.62 1014.11 1013.56 1012.94 1012.23 1011.46 1010.66 1009.88 1009.19 1008.64 1008.25 1008.07 1008.07 1008.24 1008.56 1008.99 1009.50 1010.03 1010.56 1011.06 1011.50 1011.87
1029.62 1029.03 1028.38 1027.69 1027.01 1026.36 1025.75 1025.19 1024.63 1024.05 1023.40 1022.65 1021.78 1020.80 1019.75 1018.67 1017.62 1016.65 1015.80 1015.07 1014.46 1013.92 1013.40 1012.85 1012.24 1011.56 1010.80 1010.00 1009.20 1008.47 1007.85 1007.39 1007.12 1007.05 1007.19 1007.49 1007.95 1008.51 1009.13 1009.77 1010.38 1010.94 1011.42
1029.77 1029.16 1028.50 1027.80 1027.11 1026.46 1025.85 1025.28 1024.71 1024.12 1023.44 1022.66 1021.75 1020.71 1019.59 1018.43 1017.29 1016.23 1015.28 1014.47 1013.77 1013.16 1012.60 1012.03 1011.42 1010.74 1009.99 1009.20 1008.40 1007.64 1006.98 1006.47 1006.14 1006.02 1006.11 1006.40 1006.86 1007.46 1008.15 1008.88 1009.60 1010.28 1010.88
1029.81 1029.21 1028.55 1027.86 1027.18 1026.53 1025.92 1025.33 1024.75 1024.13 1023.43 1022.61 1021.66 1020.59 1019.43 1018.21 1017.00 1015.86 1014.82 1013.90 1013.10 1012.40 1011.76 1011.13 1010.48 1009.79 1009.05 1008.27 1007.48 1006.73 1006.07 1005.54 1005.18 1005.02 1005.07 1005.33 1005.78 1006.39 1007.12 1007.92 1008.74 1009.52 1010.23
1029.75 1029.17 1028.54 1027.87 1027.21 1026.57 1025.95 1025.35 1024.75 1024.10 1023.36 1022.52 1021.55 1020.46 1019.27 1018.03 1016.78 1015.57 1014.45 1013.42 1012.51 1011.68 1010.93 1010.21 1009.49 1008.76 1008.01 1007.25 1006.49 1005.78 1005.14 1004.62 1004.26 1004.09 1004.11 1004.34 1004.77 1005.37 1006.11 1006.95 1007.83 1008.70 1009.52
1029.61 1029.06 1028.45 1027.82 1027.19 1026.56 1025.95 1025.33 1024.70 1024.01 1023.25 1022.38 1021.40 1020.31 1019.13 1017.89 1016.63 1015.38 1014.19 1013.06 1012.02 1011.06 1010.16 1009.32 1008.51 1007.72 1006.95 1006.19 1005.48 1004.82 1004.23 1003.76 1003.42 1003.25 1003.26 1003.46 1003.85 1004.43 1005.16 1006.00 1006.92 1007.86 1008.76
1029.41 1028.88 1028.32 1027.73 1027.12 1026.51 1025.89 1025.26 1024.59 1023.87 1023.08 1022.20 1021.23 1020.15 1019.00 1017.79 1016.54 1015.28 1014.03 1012.82 1011.66 1010.55 1009.50 1008.51 1007.58 1006.71 1005.89 1005.15 1004.47 1003.87 1003.35 1002.94 1002.66 1002.51 1002.51 1002.69 1003.05 1003.58 1004.28 1005.11 1006.04 1007.02 1007.99
1029.18 1028.68 1028.14 1027.59 1027.01 1026.41 1025.78 1025.12 1024.42 1023.67 1022.85 1021.96 1020.99 1019.96 1018.85 1017.69 1016.47 1015.22 1013.95 1012.67 1011.39 1010.14 1008.94 1007.79 1006.72 1005.75 1004.88 1004.12 1003.46 1002.92 1002.48 1002.14 1001.92 1001.81 1001.83 1002.00 1002.32 1002.82 1003.47 1004.28 1005.21 1006.20 1007.23
1028.95 1028.46 1027.95 1027.42 1026.86 1026.26 1025.62 1024.93 1024.19 1023.39 1022.54 1021.64 1020.69 1019.69 1018.64 1017.53 1016.37 1015.15 1013.87 1012.54 1011.18 1009.80 1008.44 1007.14 1005.93 1004.83 1003.88 1003.09 1002.44 1001.94 1001.56 1001.30 1001.14 1001.08 1001.13 1001.31 1001.62 1002.09 1002.71 1003.50 1004.42 1005.44 1006.50
1028.73 1028.25 1027.75 1027.23 1026.68 1026.08 1025.41 1024.68 1023.89 1023.04 1022.16 1021.23 1020.29 1019.32 1018.32 1017.29 1016.19 1015.01 1013.74 1012.38 1010.95 1009.46 1007.97 1006.51 1005.15 1003.92 1002.87 1002.01 1001.34 1000.85 1000.52 1000.32 1000.23 1000.24 1000.34 1000.55 1000.87 1001.34 1001.96 1002.74 1003.67 1004.71 1005.82
1028.54 1028.06 1027.56 1027.05 1026.48 1025.86 1025.16 1024.39 1023.54 1022.64 1021.71 1020.76 1019.81 1018.86 1017.91 1016.92 1015.88 1014.75 1013.51 1012.14 1010.65 1009.07 1007.45 1005.85 1004.33 1002.96 1001.79 1000.83 1000.11 999.61 999.30 999.15 999.13 999.21 999.39 999.65 1000.03 1000.53 1001.19 1001.99 1002.95 1004.02 1005.17
1028.37 1027.88 1027.38 1026.86 1026.28 1025.63 1024.90 1024.07 1023.17 1022.21 1021.22 1020.24 1019.27 1018.33 1017.40 1016.46 1015.47 1014.38 1013.15 1011.78 1010.25 1008.59 1006.86 1005.12 1003.44 1001.92 1000.60 999.53 998.73 998.19 997.88 997.76 997.81 997.98 998.24 998.60 999.07 999.65 1000.37 1001.23 1002.24 1003.37 1004.58
1028.20 1027.71 1027.20 1026.67 1026.07 1025.40 1024.63 1023.76 1022.80 1021.79 1020.75 1019.72 1018.73 1017.78 1016.86 1015.95 1014.98 1013.92 1012.71 1011.32 1009.76 1008.03 1006.19 1004.31 1002.49 1000.80 999.33 998.13 997.23 996.62 996.30 996.21 996.32 996.58 996.96 997.44 998.02 998.72 999.53 1000.48 1001.56 1002.76 1004.03
1028.03 1027.53 1027.02 1026.48 1025.87 1025.18 1024.38 1023.47 1022.48 1021.42 1020.34 1019.27 1018.25 1017.29 1016.36 1015.45 1014.50 1013.44 1012.23 1010.83 1009.22 1007.43 1005.49 1003.48 1001.51 999.67 998.05 996.71 995.70 995.03 994.67 994.61 994.78 995.14 995.65 996.26 996.99 997.81 998.74 999.79 1000.95 1002.21 1003.54
1027.83 1027.34 1026.83 1026.28 1025.67 1024.96 1024.15 1023.23 1022.21 1021.13 1020.03 1018.94 1017.89 1016.91 1015.97 1015.04 1014.08 1013.02 1011.80 1010.37 1008.72 1006.86 1004.83 1002.72 1000.62 998.64 996.88 995.42 994.31 993.57 993.20 993.15 993.39 993.85 994.47 995.22 996.08 997.03 998.07 999.20 1000.43 1001.75 1003.13
1027.59 1027.11 1026.61 1026.07 1025.46 1024.76 1023.95 1023.03 1022.01 1020.93 1019.82 1018.72 1017.67 1016.67 1015.71 1014.78 1013.80 1012.72 1011.48 1010.02 1008.33 1006.42 1004.32 1002.13 999.93 997.84 995.98 994.43 993.24 992.46 992.08 992.05 992.35 992.89 993.62 994.48 995.44 996.49 997.60 998.79 1000.06 1001.39 1002.79
1027.32 1026.85 1026.36 1025.83 1025.23 1024.55 1023.76 1022.86 1021.86 1020.80 1019.71 1018.62 1017.57 1016.57 1015.61 1014.66 1013.67 1012.57 1011.31 1009.83 1008.12 1006.18 1004.05 1001.81 999.56 997.42 995.50 993.90 992.68 991.88 991.50 991.50 991.84 992.45 993.25 994.18 995.20 996.28 997.42 998.61 999.86 1001.17 1002.54
1027.03 1026.57 1026.09 1025.57 1024.99 1024.33 1023.56 1022.70 1021.74 1020.72 1019.66 1018.60 1017.57 1016.58 1015.62 1014.66 1013.67 1012.56 1011.29 1009.82 1008.11 1006.18 1004.06 1001.84 999.60 997.47 995.56 993.96 992.75 991.96 991.59 991.62 991.99 992.63 993.45 994.40 995.42 996.48 997.57 998.70 999.87 1001.10 1002.39
1026.71 1026.26 1025.80 1025.29 1024.73 1024.09 1023.35 1022.53 1021.62 1020.64 1019.63 1018.61 1017.61 1016.65 1015.70 1014.75 1013.76 1012.67 1011.42 1009.98 1008.32 1006.45 1004.40 1002.25 1000.09 998.04 996.20 994.66 993.49 992.74 992.40 992.45 992.83 993.45 994.25 995.15 996.11 997.08 998.06 999.07 1000.11 1001.21 1002.38
1026.39 1025.95 1025.50 1025.00 1024.45 1023.83 1023.13 1022.35 1021.48 1020.55 1019.59 1018.62 1017.66 1016.73 1015.81 1014.89 1013.92 1012.86 1011.66 1010.29 1008.72 1006.95 1005.04 1003.03 1001.02 999.10 997.39 995.96 994.88 994.19 993.88 993.93 994.28 994.86 995.59 996.39 997.22 998.06 998.89 999.72 1000.59 1001.53 1002.55
1026.08 1025.66 1025.20 1024.72 1024.18 1023.58 1022.90 1022.15 1021.33 1020.45 1019.54 1018.61 1017.70 1016.80 1015.92 1015.03 1014.11 1013.10 1011.99 1010.71 1009.28 1007.68 1005.94 1004.13 1002.31 1000.59 999.05 997.76 996.79 996.16 995.88 995.92 996.22 996.71 997.33 998.00 998.68 999.35 1000.00 1000.65 1001.34 1002.10 1002.97
1025.79 1025.38 1024.94 1024.45 1023.92 1023.34 1022.68 1021.96 1021.17 1020.34 1019.47 1018.59 1017.72 1016.87 1016.03 1015.19 1014.32 1013.39 1012.38 1011.24 1009.97 1008.56 1007.04 1005.46 1003.88 1002.37 1001.02 999.89 999.03 998.47 998.20 998.21 998.44 998.83 999.32 999.84 1000.37 1000.87 1001.35 1001.84 1002.37 1002.98 1003.70
1025.55 1025.14 1024.70 1024.23 1023.70 1023.12 1022.49 1021.79 1021.04 1020.25 1019.43 1018.60 1017.77 1016.96 1016.17 1015.38 1014.58 1013.75 1012.84 1011.86 1010.76 1009.56 1008.28 1006.94 1005.60 1004.31 1003.15 1002.18 1001.42 1000.90 1000.64 1000.59 1000.74 1001.02 1001.38 1001.77 1002.16 1002.54 1002.90 1003.26 1003.68 1004.18 1004.80
Thickness
5597 5599 5601 5602 5604 5606 5608 5611 5614 5616 5618 5620 5622 5625 5627 5628 5630 5632 5633 5634 5636 5638 5640 5642 5643 5644 5646 5646 5647 5647 5647 5648 5648 5647 5647 5647 5646 5646 5646 5645 5645 5644 5644
5585 5587 5589 5590 5592 5594 5596 5599 5602 5604 5606 5609 5611 5613 5616 5617 5620 5622 5623 5625 5626 5628 5630 5632 5634 5636 5637 5638 5639 5639 5640 5640 5640 5640 5640 5640 5640 5640 5639 5639 5639 5639 5638
5573 5575 5577 5579 5580 5582 5584 5587 5590 5592 5594 5597 5600 5602 5604 5606 5608 5610 5612 5614 5616 5617 5619 5621 5623 5626 5627 5629 5630 5631 5631 5632 5633 5633 5633 5633 5633 5633 5633 5632 5632 5632 5632
5562 5564 5566 5567 5568 5570 5573 5575 5578 5580 5583 5585 5587 5590 5592 5594 5596 5598 5600 5602 5604 5606 5607 5609 5611 5613 5616 5617 5619 5621 5622 5623 5624 5624 5625 5625 5626 5626 5626 5626 5625 5625 5625
5551 5553 5554 5555 5556 5558 5561 5563 5565 5567 5570 5572 5575 5577 5580 5582 5584 5586 5588 5589 5591 5593 5595 5597 5599 5600 5603 5606 5608 5610 5612 5613 5614 5615 5616 5617 5618 5618 5619 5619 5618 5618 5618
5539 5541 5542 5543 5544 5546 5548 5550 5552 5554 5556 5559 5562 5565 5568 5570 5572 5573 5575 5577 5578 5580 5582 5584 5587 5589 5590 5593 5596 5600 5601 5603 5605 5606 5607 5609 5610 5611 5611 5612 5611 5611 5611
5528 5529 5530 5531 5532 5534 5536 5537 5539 5541 5543 5545 5549 5553 5556 5558 5560 5561 5562 5564 5566 5568 5570 5572 5574 5577 5579 5581 5584 5587 5590 5593 5595 5596 5598 5599 5601 5602 5603 5604 5603 5603 5603
5516 5516 5518 5519 5520 5521 5523 5524 5525 5527 5529 5531 5536 5540 5547 5549 5549 5548 5550 5552 5554 5555 5557 5559 5562 5564 5567 5569 5571 5574 5578 5581 5584 5586 5588 5590 5591 5593 5594 5595 5595 5595 5595
5504 5504 5505 5506 5508 5509 5510 5511 5512 5514 5517 5517 5519 5524 5531 5538 5537 5538 5538 5539 5541 5543 5545 5547 5549 5551 5554 5557 5560 5562 5565 5568 5572 5575 5577 5579 5581 5583 5584 5585 5586 5586 5587
5493 5493 5493 5494 5495 5497 5498 5499 5500 5501 5503 5505 5506 5508 5512 5517 5521 5526 5527 5527 5528 5530 5532 5534 5536 5538 5541 5544 5547 5550 5553 5556 5559 5563 5566 5567 5570 5573 5574 5575 5576 5576 5577
5481 5481 5482 5483 5484 5485 5486 5487 5488 5489 5490 5492 5494 5495 5498 5501 5505 5509 5515 5516 5516 5517 5519 5521 5524 5527 5529 5532 5535 5538 5541 5544 5547 5550 5554 5556 5558 5561 5563 5564 5566 5566 5566
5470 5470 5471 5472 5472 5473 5474 5475 5476 5477 5478 5479 5481 5483 5485 5489 5492 5495 5499 5503 5506 5507 5507 5509 5512 5515 5517 5520 5523 5526 5529 5532 5535 5538 5542 5544 5545 5548 5551 5552 5553 5554 5555
5460 5460 5460 5461 5461 5462 5462 5463 5465 5465 5466 5467 5469 5470 5472 5474 5477 5480 5484 5488 5492 5495 5496 5498 5500 5503 5505 5508 5512 5514 5517 5520 5523 5526 5529 5531 5533 5535 5537 5539 5540 5541 5542
5451 5450 5449 5450 5450 5451 5451 5452 5453 5454 5455 5456 5457 5459 5461 5462 5464 5467 5471 5474 5480 5484 5487 5489 5489 5491 5493 5496 5499 5501 5505 5508 5511 5514 5517 5519 5520 5522 5524 5526 5527 5528 5529
5441 5440 5440 5440 5440 5440 5441 5442 5443 5443 5444 5445 5447 5448 5450 5452 5453 5456 5458 5461 5467 5473 5479 5479 5479 5479 5481 5484 5487 5490 5493 5496 5499 5502 5505 5507 5508 5510 5511 5513 5514 5516 5517
5432 5431 5431 5431 5431 5431 5431 5432 5433 5434 5434 5435 5436 5437 5439 5441 5444 5446 5448 5451 5455 5459 5464 5468 5468 5469 5470 5473 5476 5479 5482 5485 5488 5490 5493 5494 5496 5497 5499 5501 5502 5503 5505
5423 5423 5422 5422 5422 5422 5422 5423 5424 5424 5425 5425 5426 5428 5430 5432 5434 5437 5438 5441 5444 5447 5450 5454 5456 5458 5460 5463 5465 5468 5471 5474 5478 5479 5481 5483 5485 5487 5488 5489 5490 5491 5493
5414 5414 5413 5412 5412 5412 5413 5413 5414 5414 5415 5416 5417 5419 5421 5423 5425 5428 5429 5432 5435 5437 5440 5443 5446 5448 5450 5453 5455 5457 5460 5463 5466 5468 5471 5473 5475 5476 5477 5478 5479 5480 5482
5405 5405 5404 5404 5403 5403 5403 5404 5405 5405 5406 5407 5409 5411 5413 5415 5417 5419 5421 5423 5425 5427 5429 5432 5436 5438 5441 5442 5444 5446 5449 5453 5455 5458 5460 5462 5464 5465 5465 5466 5467 5469 5470
5396 5396 5395 5394 5394 5394 5394 5394 5395 5396 5398 5399 5401 5402 5404 5407 5409 5410 5413 5415 5416 5417 5420 5422 5425 5428 5430 5432 5434 5436 5439 5441 5444 5446 5448 5450 5452 5453 5454 5455 5457 5458 5459
5386 5386 5385 5385 5385 5385 5385 5385 5386 5388 5390 5391 5393 5394 5396 5398 5399 5402 5404 5406 5406 5408 5410 5412 5415 5418 5420 5421 5424 5425 5427 5430 5433 5435 5437 5439 5441 5443 5443 5444 5446 5446 5447
5377 5376 5376 5376 5376 5376 5376 5376 5377 5379 5381 5383 5384 5386 5388 5390 5391 5393 5395 5396 5397 5399 5401 5403 5406 5408 5410 5411 5414 5415 5417 5420 5423 5424 5424 5426 5428 5430 5431 5433 5434 5435 5436
5367 5367 5366 5366 5367 5367 5367 5367 5368 5370 5372 5374 5376 5378 5380 5382 5383 5385 5386 5386 5388 5389 5391 5393 5395 5397 5399 5402 5403 5404 5406 5408 5410 5410 5411 5414 5415 5417 5418 5420 5421 5423 5424
5358 5358 5358 5357 5358 5359 5358 5359 5359 5362 5364 5367 5369 5370 5372 5374 5376 5377 5378 5378 5380 5381 5383 5384 5386 5388 5388 5389 5391 5393 5394 5395 5396 5397 5398 5402 5403 5404 5405 5406 5408 5410 5411
5350 5349 5349 5349 5349 5350 5350 5351 5352 5354 5357 5360 5362 5363 5365 5367 5369 5369 5370 5371 5372 5373 5373 5374 5376 5377 5378 5379 5379 5381 5382 5384 5386 5387 5387 5388 5390 5391 5392 5394 5395 5396 5398
5340 5340 5340 5341 5342 5343 5343 5344 5345 5348 5351 5353 5355 5357 5358 5360 5362 5363 5364 5365 5365 5366 5366 5367 5367 5367 5368 5368 5368 5369 5371 5373 5375 5375 5376 5375 5377 5378 5380 5382 5383 5385 5386